Terminal Aerodrome Forecast
Issued by NWS Riverton, WY

Home | Current Version | Previous Version | Text Only | Print | Product List | Glossary On
Versions: 1 2 3 4 5 6 7 8 9 10 11 12 13 14 15 16 17
000
FTUS45 KRIW 021121
TAFRIW
TAF
KRIW 021121Z 0212/0312 24008KT P6SM SCT110
     FM021400 VRB05KT P6SM SCT110
     FM022030 24014G24KT P6SM SCT110
     FM030100 25011KT P6SM SCT110
     FM030600 28009KT P6SM SCT120=

USA.gov is the U.S. government's official web portal to all federal, state and local government web resources and services.